GW5516 Weather Reports


time (UTC)temp
C
wind
direction
speed
KPH
gust
KPH
rain 1hr
cm
rain 24hr
cm
rain mn
cm
humidity
%
barometer
mb
20260507142943 13 160 8.0 16.1 0.00 0.00 0.00 53 1019.7
20260507142439 12 129 16.1 19.3 0.00 0.00 0.00 53 1019.6
20260507141937 12 140 11.3 19.3 0.00 0.00 0.00 52 1019.7
20260507141432 12 148 9.7 16.1 0.00 0.00 0.00 53 1019.7
20260507140930 12 154 12.9 19.3 0.00 0.00 0.00 54 1019.7
20260507140426 12 150 8.0 16.1 0.00 0.00 0.00 56 1019.8
20260507135924 12 135 14.5 17.7 0.00 0.00 0.00 55 1019.8
20260507135420 12 139 14.5 20.9 0.00 0.00 0.00 55 1019.7
20260507134918 11 133 11.3 17.7 0.00 0.00 0.00 55 1019.8
20260507134414 11 134 16.1 19.3 0.00 0.00 0.00 55 1019.8
20260507133910 11 141 14.5 14.5 0.00 0.00 0.00 58 1019.8
20260507133406 11 155 9.7 14.5 0.00 0.00 0.00 58 1019.9
20260507132905 11 135 12.9 16.1 0.00 0.00 0.00 57 1019.9
20260507132401 11 144 8.0 12.9 0.00 0.00 0.00 58 1019.7
20260507131858 11 129 11.3 14.5 0.00 0.00 0.00 60 1019.8
20260507131355 11 128 8.0 8.0 0.00 0.00 0.00 61 1019.7
20260507130852 10 135 6.4 11.3 0.00 0.00 0.00 64 1019.9
20260507130348 10 134 6.4 9.7 0.00 0.00 0.00 66 1019.8
20260507125848 10 144 4.8 6.4 0.00 0.00 0.00 64 1019.9
20260507125344 10 136 6.4 8.0 0.00 0.00 0.00 67 1019.7
20260507124842 9 130 4.8 6.4 0.00 0.00 0.00 70 1019.7
20260507124338 8 152 8.0 9.7 0.00 0.00 0.00 66 1019.9
20260507123837 8 124 4.8 6.4 0.00 0.00 0.00 71 1019.7
20260507123333 8 117 6.4 6.4 0.00 0.00 0.00 71 1019.7
20260507122830 7 125 4.8 6.4 0.00 0.00 0.00 71 1019.6
20260507122325 7 130 4.8 6.4 0.00 0.00 0.00 74 1019.3
20260507121823 6 125 6.4 8.0 0.00 0.00 0.00 75 1019.4
20260507121317 6 148 6.4 6.4 0.00 0.00 0.00 78 1019.6
20260507120814 6 132 6.4 8.0 0.00 0.00 0.00 81 1019.4
20260507120310 6 129 6.4 8.0 0.00 0.00 0.00 84 1019.5
20260507115807 6 125 4.8 6.4 0.00 0.00 0.00 86 1019.5
20260507115306 6 118 3.2 4.8 0.00 0.00 0.00 90 1019.5
20260507114758 5 38 0.0 3.2 0.00 0.00 0.00 91 1019.6
20260507114256 5 3 0.0 3.2 0.00 0.00 0.00 90 1019.6
20260507113753 5 54 3.2 4.8 0.00 0.00 0.00 89 1019.3
20260507113250 5 79 3.2 4.8 0.00 0.00 0.00 90 1019.2
20260507112748 5 44 3.2 3.2 0.00 0.00 0.00 91 1019.1
20260507112244 5 123 3.2 6.4 0.00 0.00 0.00 91 1018.9
20260507111742 5 88 1.6 1.6 0.00 0.00 0.00 92 1019.3
20260507111238 5 95 1.6 1.6 0.00 0.00 0.00 92 1019.0
20260507110734 5 145 3.2 3.2 0.00 0.00 0.00 92 1019.0
20260507110231 5 131 3.2 4.8 0.00 0.00 0.00 91 1018.8
20260507105728 5 71 1.6 3.2 0.00 0.00 0.00 90 1018.9
20260507105224 5 119 4.8 4.8 0.00 0.00 0.00 90 1018.8
20260507104722 5 147 1.6 3.2 0.00 0.00 0.00 91 1018.7
20260507104218 5 169 3.2 4.8 0.00 0.00 0.00 90 1018.7
20260507103714 5 135 4.8 4.8 0.00 0.00 0.00 89 1019.0
20260507103210 6 123 4.8 4.8 0.00 0.00 0.00 83 1019.0
20260507102707 5 64 3.2 3.2 0.00 0.00 0.00 87 1018.9
20260507102204 5 69 0.0 1.6 0.00 0.00 0.00 88 1019.0
20260507101700 6 326 0.0 0.0 0.00 0.00 0.00 89 1018.9
20260507101155 6 120 1.6 3.2 0.00 0.00 0.00 88 1019.1
20260507100653 6 236 0.0 3.2 0.00 0.00 0.00 89 1019.0
20260507100151 6 118 3.2 4.8 0.00 0.00 0.00 85 1019.0
20260507095649 5 113 3.2 4.8 0.00 0.00 0.00 89 1018.8
20260507095145 5 117 3.2 4.8 0.00 0.00 0.00 89 1018.7
20260507094641 5 131 3.2 4.8 0.00 0.00 0.00 89 1018.8
20260507094138 5 89 3.2 6.4 0.00 0.00 0.00 90 1019.0
20260507093636 5 121 3.2 4.8 0.00 0.00 0.00 90 1019.0
20260507093134 5 116 3.2 3.2 0.00 0.00 0.00 90 1019.2
20260507092631 4 117 1.6 3.2 0.00 0.00 0.00 90 1019.1
20260507092127 4 109 3.2 3.2 0.00 0.00 0.00 89 1019.1
20260507091624 4 124 3.2 4.8 0.00 0.00 0.00 90 1019.0
20260507091119 4 127 4.8 6.4 0.00 0.00 0.00 90 1019.1
20260507090616 3 134 4.8 4.8 0.00 0.00 0.00 91 1019.1
20260507090113 3 167 3.2 4.8 0.00 0.00 0.00 91 1019.0
20260507085610 3 129 4.8 6.4 0.00 0.00 0.00 91 1019.0
20260507085107 3 135 3.2 3.2 0.00 0.00 0.00 91 1018.8
20260507084603 3 140 1.6 3.2 0.00 0.00 0.00 90 1019.0
20260507084100 3 143 0.0 3.2 0.00 0.00 0.00 89 1018.9
20260507083556 4 122 3.2 3.2 0.00 0.00 0.00 89 1018.8
20260507083054 4 122 3.2 4.8 0.00 0.00 0.00 89 1018.8
20260507082549 4 141 3.2 3.2 0.00 0.00 0.00 89 1018.9
20260507082046 4 100 1.6 3.2 0.00 0.00 0.00 89 1018.9
20260507081542 4 161 0.0 3.2 0.00 0.00 0.00 89 1018.8
20260507081040 4 138 3.2 3.2 0.00 0.00 0.00 88 1018.8
20260507080535 5 156 3.2 3.2 0.00 0.00 0.00 86 1018.7
20260507080032 4 111 1.6 3.2 0.00 0.00 0.00 87 1018.7
20260507075527 5 130 0.0 3.2 0.00 0.00 0.00 86 1018.7
20260507075024 5 108 1.6 4.8 0.00 0.00 0.00 86 1018.9
20260507074521 4 131 3.2 3.2 0.00 0.00 0.00 87 1018.8
20260507074020 5 130 3.2 3.2 0.00 0.00 0.00 87 1018.7
20260507073515 5 110 3.2 4.8 0.00 0.00 0.00 88 1018.8
20260507073012 4 117 3.2 3.2 0.00 0.00 0.00 89 1019.0
20260507072509 4 77 0.0 1.6 0.00 0.00 0.00 88 1019.1
20260507072006 4 66 0.0 0.0 0.00 0.00 0.00 85 1019.4
20260507071504 5 97 0.0 3.2 0.00 0.00 0.00 83 1019.3
20260507071000 4 83 1.6 1.6 0.00 0.00 0.00 86 1019.3
20260507070457 5 124 0.0 3.2 0.00 0.00 0.00 85 1019.3
20260507065954 5 117 1.6 3.2 0.00 0.00 0.00 85 1019.3
20260507065451 5 122 3.2 4.8 0.00 0.00 0.00 84 1019.4
20260507064948 5 132 3.2 3.2 0.00 0.00 0.00 85 1019.5
20260507064446 5 91 0.0 3.2 0.00 0.00 0.00 85 1019.4
20260507063943 5 129 1.6 3.2 0.00 0.00 0.00 85 1019.6
20260507063440 5 104 1.6 1.6 0.00 0.00 0.00 85 1019.6
20260507062937 5 93 1.6 3.2 0.00 0.00 0.00 85 1019.4
20260507062434 5 60 0.0 1.6 0.00 0.00 0.00 85 1019.3
20260507061932 5 96 0.0 1.6 0.00 0.00 0.00 84 1019.2
20260507061430 5 66 0.0 1.6 0.00 0.00 0.00 82 1019.3
20260507060928 5 89 0.0 1.6 0.00 0.00 0.00 82 1019.3
20260507060424 6 104 0.0 1.6 0.00 0.00 0.00 81 1019.3
20260507055921 6 116 0.0 1.6 0.00 0.00 0.00 79 1019.3
20260507055417 6 138 0.0 3.2 0.00 0.00 0.00 79 1019.4
20260507054914 6 107 3.2 3.2 0.00 0.00 0.00 80 1019.3
20260507054409 6 122 3.2 3.2 0.00 0.00 0.00 82 1019.4
20260507053907 6 129 1.6 3.2 0.00 0.00 0.00 80 1019.4
20260507053404 6 97 1.6 1.6 0.00 0.00 0.00 78 1019.4
20260507052903 6 103 0.0 0.0 0.00 0.00 0.00 79 1019.6
20260507052400 7 60 0.0 1.6 0.00 0.00 0.00 77 1019.5
20260507051857 7 93 0.0 3.2 0.00 0.00 0.00 75 1019.3
20260507051355 7 150 0.0 1.6 0.00 0.00 0.00 75 1019.3
20260507050851 7 111 0.0 1.6 0.00 0.00 0.00 73 1019.2
20260507050348 7 75 3.2 3.2 0.00 0.00 0.00 70 1019.3
20260507045845 8 46 3.2 3.2 0.00 0.00 0.00 70 1019.3
20260507045341 8 51 0.0 1.6 0.00 0.00 0.00 71 1019.4
20260507044838 8 32 1.6 3.2 0.00 0.00 0.00 70 1019.1
20260507044335 8 31 1.6 3.2 0.00 0.00 0.00 70 1019.2
20260507043831 8 48 1.6 3.2 0.00 0.00 0.00 69 1019.2
20260507043327 8 36 0.0 3.2 0.00 0.00 0.00 67 1019.1
20260507042824 8 346 1.6 4.8 0.00 0.00 0.00 66 1019.3
20260507042319 8 1 3.2 3.2 0.00 0.00 0.00 66 1019.2
20260507041816 8 47 3.2 4.8 0.00 0.00 0.00 66 1019.0
20260507041313 9 11 4.8 6.4 0.00 0.00 0.00 66 1019.0
20260507040811 9 12 4.8 4.8 0.00 0.00 0.00 65 1019.1
20260507040306 9 41 3.2 4.8 0.00 0.00 0.00 65 1019.2
20260507035802 9 20 3.2 4.8 0.00 0.00 0.00 66 1019.0
20260507035258 10 352 3.2 8.0 0.00 0.00 0.00 65 1019.1
20260507034756 10 350 6.4 6.4 0.00 0.00 0.00 64 1019.0
20260507034252 10 16 4.8 4.8 0.00 0.00 0.00 65 1018.9
20260507033751 10 348 3.2 6.4 0.00 0.00 0.00 65 1018.9
20260507033248 10 29 4.8 6.4 0.00 0.00 0.00 64 1018.9
20260507032745 10 334 3.2 6.4 0.00 0.00 0.00 63 1018.7
20260507032241 10 347 8.0 8.0 0.00 0.00 0.00 63 1018.7
20260507031738 10 353 3.2 6.4 0.00 0.00 0.00 63 1018.8
20260507031235 10 354 6.4 6.4 0.00 0.00 0.00 63 1019.0
20260507030731 10 346 3.2 6.4 0.00 0.00 0.00 63 1018.8
20260507030229 10 345 3.2 6.4 0.00 0.00 0.00 63 1018.8
20260507025726 10 355 6.4 6.4 0.00 0.00 0.00 63 1018.7
20260507025223 10 344 4.8 6.4 0.00 0.00 0.00 63 1018.9
20260507024721 11 312 3.2 6.4 0.00 0.00 0.00 63 1018.6
20260507024218 11 69 3.2 8.0 0.00 0.00 0.00 63 1018.6
20260507023713 11 359 3.2 6.4 0.00 0.00 0.00 63 1018.6
20260507023211 11 340 1.6 3.2 0.00 0.00 0.00 64 1018.6
20260507022708 11 50 3.2 4.8 0.00 0.00 0.00 62 1018.5
20260507022203 11 23 4.8 6.4 0.00 0.00 0.00 61 1018.5
20260507021700 11 354 3.2 3.2 0.00 0.00 0.00 62 1018.4
20260507021155 11 359 3.2 4.8 0.00 0.00 0.00 61 1018.4
20260507020654 11 5 1.6 3.2 0.00 0.00 0.00 61 1018.5
20260507020150 11 75 0.0 3.2 0.00 0.00 0.00 61 1018.2
20260507015648 12 7 3.2 3.2 0.00 0.00 0.00 59 1018.3
20260507015145 12 110 0.0 3.2 0.00 0.00 0.00 59 1018.1
20260507014642 12 10 3.2 4.8 0.00 0.00 0.00 58 1018.2
20260507014138 12 43 1.6 3.2 0.00 0.00 0.00 58 1017.9
20260507013635 12 52 3.2 6.4 0.00 0.00 0.00 57 1018.1
20260507013132 12 353 3.2 3.2 0.00 0.00 0.00 56 1018.0
20260507012629 12 14 3.2 4.8 0.00 0.00 0.00 55 1017.9
20260507012124 12 16 3.2 4.8 0.00 0.00 0.00 55 1017.8
20260507011623 13 35 4.8 6.4 0.00 0.00 0.00 55 1017.8
20260507011119 13 347 1.6 6.4 0.00 0.00 0.00 54 1017.9
20260507010614 13 352 6.4 6.4 0.00 0.00 0.00 53 1017.8
20260507010110 13 315 3.2 6.4 0.00 0.00 0.00 53 1017.6
20260507005608 13 47 4.8 6.4 0.00 0.00 0.00 53 1017.8
20260507005103 13 355 3.2 9.7 0.00 0.00 0.00 52 1017.9
20260507004601 13 342 6.4 9.7 0.00 0.00 0.00 52 1017.8
20260507004058 13 338 6.4 9.7 0.00 0.00 0.00 51 1017.8
20260507003554 13 14 6.4 8.0 0.00 0.00 0.00 52 1017.6
20260507003049 13 275 3.2 8.0 0.00 0.00 0.00 52 1017.6
20260507002546 13 339 6.4 9.7 0.00 0.00 0.00 51 1017.4
20260507002042 14 359 6.4 11.3 0.00 0.00 0.00 50 1017.4
20260507001539 14 359 3.2 11.3 0.00 0.00 0.00 50 1017.4
20260507001036 14 356 6.4 12.9 0.00 0.00 0.00 50 1017.3
20260507000532 14 23 4.8 14.5 0.00 0.00 0.00 49 1017.2
20260507000028 15 37 3.2 14.5 0.00 0.00 0.00 49 1017.1
20260506235525 15 348 14.5 16.1 0.00 0.00 0.00 47 1016.9
20260506235021 15 354 9.7 22.5 0.00 0.00 0.00 46 1017.1
20260506234519 15 352 6.4 16.1 0.00 0.00 0.00 47 1017.0
20260506234016 15 357 6.4 16.1 0.00 0.00 0.00 47 1016.9
20260506233512 15 359 8.0 12.9 0.00 0.00 0.00 44 1016.7
20260506233009 15 329 8.0 19.3 0.00 0.00 0.00 46 1016.3
20260506232505 15 307 24.1 25.7 0.00 0.00 0.00 44 1016.3
20260506232001 15 335 11.3 22.5 0.00 0.00 0.00 45 1016.5
20260506231458 15 342 17.7 24.1 0.00 0.00 0.00 44 1016.5
20260506230956 15 301 6.4 16.1 0.00 0.00 0.00 45 1016.6
20260506230452 15 359 11.3 24.1 0.00 0.00 0.00 43 1016.8
20260506225949 15 14 12.9 24.1 0.00 0.00 0.00 45 1016.8
20260506225446 15 344 16.1 24.1 0.00 0.00 0.00 44 1016.6
20260506224943 15 344 17.7 27.4 0.00 0.00 0.00 44 1016.5
20260506224440 15 44 9.7 20.9 0.00 0.00 0.00 45 1016.6
20260506223936 15 334 20.9 24.1 0.00 0.00 0.00 44 1016.5
20260506223432 15 338 11.3 25.7 0.00 0.00 0.00 45 1016.6
20260506222930 16 3 8.0 14.5 0.00 0.00 0.00 45 1016.6
20260506222426 15 31 11.3 22.5 0.00 0.00 0.00 45 1016.6
20260506221923 16 39 11.3 14.5 0.00 0.00 0.00 44 1016.4
20260506221420 15 39 19.3 20.9 0.00 0.00 0.00 45 1016.3
20260506220918 15 27 14.5 22.5 0.00 0.00 0.00 45 1016.4
20260506220413 15 39 22.5 24.1 0.00 0.00 0.00 46 1016.6
20260506215910 15 26 14.5 25.7 0.00 0.00 0.00 44 1016.4
20260506215406 15 30 14.5 30.6 0.00 0.00 0.00 46 1016.5
20260506214902 16 16 14.5 17.7 0.00 0.00 0.00 46 1016.5
20260506214359 15 312 19.3 24.1 0.00 0.00 0.00 44 1016.6
20260506213857 16 305 19.3 20.9 0.00 0.00 0.00 43 1016.4
20260506213354 15 333 8.0 29.0 0.00 0.00 0.00 45 1016.6
20260506212851 15 355 14.5 24.1 0.00 0.00 0.00 45 1016.6
20260506212347 16 314 17.7 24.1 0.00 0.00 0.00 45 1016.6
20260506211842 15 31 3.2 17.7 0.00 0.00 0.00 47 1016.8
20260506211338 15 77 4.8 17.7 0.00 0.00 0.00 48 1016.9
20260506210836 15 27 17.7 19.3 0.00 0.00 0.00 47 1016.8
20260506210332 15 33 14.5 22.5 0.00 0.00 0.00 46 1017.0
20260506205830 15 347 24.1 24.1 0.00 0.00 0.00 47 1017.0
20260506205326 15 8 12.9 24.1 0.00 0.00 0.00 46 1017.2
20260506204822 16 308 8.0 17.7 0.00 0.00 0.00 46 1017.1
20260506204320 16 28 24.1 27.4 0.00 0.00 0.00 45 1017.3
20260506203817 16 28 9.7 9.7 0.00 0.00 0.00 45 1017.1
20260506203314 15 23 11.3 16.1 0.00 0.00 0.00 46 1017.2
20260506202811 15 20 19.3 27.4 0.00 0.00 0.00 45 1017.1
20260506202308 15 347 17.7 27.4 0.00 0.00 0.00 46 1016.9
20260506201804 15 350 19.3 25.7 0.00 0.00 0.00 48 1017.1
20260506201302 15 29 20.9 25.7 0.00 0.00 0.00 48 1017.2
20260506200759 15 28 20.9 24.1 0.00 0.00 0.00 48 1017.2
20260506200255 15 15 19.3 25.7 0.00 0.00 0.00 47 1017.4
20260506195751 15 351 17.7 29.0 0.00 0.00 0.00 45 1017.2
20260506195248 15 36 11.3 22.5 0.00 0.00 0.00 48 1017.4
20260506194745 15 18 14.5 24.1 0.00 0.00 0.00 47 1017.6
20260506194242 15 311 17.7 19.3 0.00 0.00 0.00 46 1017.6
20260506193740 15 27 25.7 27.4 0.00 0.00 0.00 47 1017.9
20260506193236 15 25 17.7 27.4 0.00 0.00 0.00 47 1017.8
20260506192732 14 333 12.9 40.2 0.00 0.00 0.00 48 1017.8
20260506192229 15 348 4.8 14.5 0.00 0.00 0.00 47 1018.0
20260506191726 14 341 8.0 20.9 0.00 0.00 0.00 49 1018.2
20260506191222 14 39 8.0 17.7 0.00 0.00 0.00 49 1018.1
20260506190720 15 43 9.7 16.1 0.00 0.00 0.00 49 1017.9
20260506190216 15 32 8.0 12.9 0.00 0.00 0.00 48 1018.1
20260506185714 14 311 4.8 19.3 0.00 0.00 0.00 54 1018.2
20260506185209 14 12 12.9 22.5 0.00 0.00 0.00 51 1018.4
20260506184702 15 31 8.0 11.3 0.00 0.00 0.00 50 1018.3
20260506184159 15 295 6.4 8.0 0.00 0.00 0.00 50 1018.4
20260506183655 15 29 19.3 24.1 0.00 0.00 0.00 49 1018.5
20260506183151 13 18 14.5 27.4 0.00 0.00 0.00 51 1018.8
20260506182649 13 26 16.1 25.7 0.00 0.00 0.00 51 1019.0
20260506182145 13 31 27.4 29.0 0.00 0.00 0.00 50 1019.0
20260506181643 13 45 8.0 14.5 0.00 0.00 0.00 52 1019.1
20260506181140 14 40 8.0 17.7 0.00 0.00 0.00 51 1019.2
20260506180637 13 45 6.4 22.5 0.00 0.00 0.00 51 1019.2
20260506180133 13 44 4.8 19.3 0.00 0.00 0.00 53 1019.2
20260506175630 13 346 12.9 17.7 0.00 0.00 0.00 52 1019.0
20260506175126 13 16 14.5 22.5 0.00 0.00 0.00 52 1018.9
20260506174625 13 328 14.5 24.1 0.00 0.00 0.00 55 1018.9
20260506174121 13 14 11.3 14.5 0.00 0.00 0.00 54 1019.2
20260506173619 13 348 12.9 17.7 0.00 0.00 0.00 54 1019.2
20260506173115 13 352 6.4 6.4 0.00 0.00 0.00 54 1019.2
20260506172613 12 27 12.9 17.7 0.00 0.00 0.00 55 1019.2
20260506172109 12 39 14.5 25.7 0.00 0.00 0.00 58 1019.3
20260506171607 12 20 11.3 17.7 0.00 0.00 0.00 56 1019.2
20260506171104 13 71 4.8 14.5 0.00 0.00 0.00 56 1019.5
20260506170601 12 356 8.0 14.5 0.00 0.00 0.00 56 1019.4
20260506170059 12 349 11.3 20.9 0.00 0.00 0.00 57 1019.4
20260506165557 12 337 11.3 12.9 0.00 0.00 0.00 58 1018.8
20260506165053 12 44 4.8 19.3 0.00 0.00 0.00 59 1018.8
20260506164550 12 22 12.9 20.9 0.00 0.00 0.00 59 1018.7
20260506164047 12 358 8.0 19.3 0.00 0.00 0.00 60 1018.6
20260506163543 12 35 14.5 20.9 0.00 0.00 0.00 61 1018.5
20260506163039 11 26 12.9 19.3 0.00 0.00 0.00 61 1018.5
20260506162536 12 26 12.9 25.7 0.00 0.00 0.00 60 1018.5
20260506162033 12 30 16.1 24.1 0.00 0.00 0.00 60 1018.5
20260506161530 12 6 6.4 17.7 0.00 0.00 0.00 58 1018.1
20260506161027 12 43 12.9 17.7 0.00 0.00 0.00 59 1018.2
20260506160525 12 37 12.9 20.9 0.00 0.00 0.00 58 1018.3
20260506160022 12 69 11.3 17.7 0.00 0.00 0.00 58 1018.3
20260506155520 12 41 14.5 17.7 0.00 0.00 0.00 59 1018.3
20260506153651 11 38 14.5 20.9 0.00 0.00 0.00 63 1018.0
20260506153149 11 26 27.4 29.0 0.00 0.00 0.00 62 1018.0
20260506152645 11 79 16.1 22.5 0.00 0.00 0.00 62 1017.8
20260506152143 11 26 16.1 22.5 0.00 0.00 0.00 64 1018.1
20260506151642 11 33 24.1 24.1 0.00 0.00 0.00 63 1018.0
20260506151138 11 39 19.3 24.1 0.00 0.00 0.00 64 1018.0
20260506150635 11 43 14.5 22.5 0.00 0.00 0.00 64 1018.1
20260506150132 11 41 12.9 20.9 0.00 0.00 0.00 66 1018.1
20260506145629 10 38 17.7 20.9 0.00 0.00 0.00 66 1018.3
20260506145125 10 32 17.7 22.5 0.00 0.00 0.00 70 1018.0
20260506144623 10 43 19.3 22.5 0.00 0.00 0.00 73 1017.8
20260506144119 10 57 20.9 20.9 0.00 0.00 0.00 73 1018.0
20260506143617 9 28 14.5 19.3 0.00 0.00 0.00 73 1018.0